Time,TemperatureF,DewpointF,PressureIn,WindDirection,WindDirectionDegrees,WindSpeedMPH,WindSpeedGustMPH,Humidity,HourlyPrecipIn,Conditions,Clouds,dailyrainin,SoftwareType,DateUTC
2013-03-16 00:06:00,21.0,19.0,29.72,SSW,196,0.0,1.0,90,0.00,,,0.00,weatherlink.com 1.10,2013-03-16 04:06:00,
2013-03-16 00:21:00,21.4,19.0,29.72,SSW,195,0.0,0.0,90,0.00,,,0.00,weatherlink.com 1.10,2013-03-16 04:21:00,
2013-03-16 00:51:00,21.5,19.0,29.73,SSW,195,0.0,1.0,90,0.00,,,0.00,weatherlink.com 1.10,2013-03-16 04:51:00,
2013-03-16 02:21:00,20.9,19.0,29.75,SSW,195,0.0,1.0,93,0.00,,,0.00,weatherlink.com 1.10,2013-03-16 06:21:00,
2013-03-16 02:36:00,20.9,19.0,29.75,SSW,195,0.0,0.0,93,0.00,,,0.00,weatherlink.com 1.10,2013-03-16 06:36:00,
2013-03-16 02:51:00,20.9,19.0,29.75,SSW,195,0.0,1.0,93,0.00,,,0.00,weatherlink.com 1.10,2013-03-16 06:51:00,
2013-03-16 03:06:00,21.0,19.0,29.75,SSW,195,0.0,0.0,93,0.00,,,0.00,weatherlink.com 1.10,2013-03-16 07:06:00,
2013-03-16 03:21:00,20.9,20.0,29.76,SSW,195,0.0,1.0,94,0.00,,,0.00,weatherlink.com 1.10,2013-03-16 07:21:00,
2013-03-16 03:36:00,20.7,19.0,29.76,SSW,195,0.0,1.0,92,0.00,,,0.00,weatherlink.com 1.10,2013-03-16 07:36:00,
2013-03-16 03:51:00,20.3,18.0,29.77,SSW,196,0.0,1.0,92,0.00,,,0.00,weatherlink.com 1.10,2013-03-16 07:51:00,
2013-03-16 04:21:00,19.7,18.0,29.77,SSW,195,0.0,1.0,91,0.00,,,0.00,weatherlink.com 1.10,2013-03-16 08:21:00,
2013-03-16 04:36:00,19.0,17.0,29.78,SSW,195,0.0,2.0,90,0.00,,,0.00,weatherlink.com 1.10,2013-03-16 08:36:00,
2013-03-16 04:51:00,18.4,16.0,29.78,SSW,195,0.0,1.0,91,0.00,,,0.00,weatherlink.com 1.10,2013-03-16 08:51:00,
2013-03-16 05:06:00,18.0,16.0,29.78,SSW,195,0.0,1.0,92,0.00,,,0.00,weatherlink.com 1.10,2013-03-16 09:06:00,
2013-03-16 05:21:00,17.8,16.0,29.79,SSW,195,0.0,1.0,92,0.00,,,0.00,weatherlink.com 1.10,2013-03-16 09:21:00,
2013-03-16 05:36:00,17.7,16.0,29.79,SSW,196,0.0,1.0,93,0.00,,,0.00,weatherlink.com 1.10,2013-03-16 09:36:00,
2013-03-16 05:51:00,17.9,16.0,29.79,SSW,195,0.0,1.0,93,0.00,,,0.00,weatherlink.com 1.10,2013-03-16 09:51:00,
2013-03-16 06:06:00,17.6,16.0,29.80,SSW,196,0.0,1.0,92,0.00,,,0.00,weatherlink.com 1.10,2013-03-16 10:06:00,
2013-03-16 06:21:00,16.8,15.0,29.80,SSW,196,0.0,0.0,92,0.00,,,0.00,weatherlink.com 1.10,2013-03-16 10:21:00,
2013-03-16 06:36:00,16.2,14.0,29.81,SSW,195,0.0,0.0,91,0.00,,,0.00,weatherlink.com 1.10,2013-03-16 10:36:00,
2013-03-16 06:52:00,15.4,13.0,29.81,SSW,195,0.0,0.0,91,0.00,,,0.00,weatherlink.com 1.10,2013-03-16 10:52:00,
2013-03-16 07:07:00,14.8,13.0,29.82,SSW,196,0.0,0.0,91,0.00,,,0.00,weatherlink.com 1.10,2013-03-16 11:07:00,
2013-03-16 07:22:00,14.7,13.0,29.82,SSW,195,0.0,0.0,92,0.00,,,0.00,weatherlink.com 1.10,2013-03-16 11:22:00,
2013-03-16 07:37:00,15.6,14.0,29.82,NNW,341,0.0,1.0,92,0.00,,,0.00,weatherlink.com 1.10,2013-03-16 11:37:00,
2013-03-16 07:52:00,16.9,15.0,29.83,WNW,298,0.0,2.0,90,0.00,,,0.00,weatherlink.com 1.10,2013-03-16 11:52:00,
2013-03-16 08:07:00,18.8,16.0,29.83,West,279,0.0,1.0,87,0.00,,,0.00,weatherlink.com 1.10,2013-03-16 12:07:00,
2013-03-16 08:22:00,18.6,15.0,29.83,SSE,153,0.0,3.0,84,0.00,,,0.00,weatherlink.com 1.10,2013-03-16 12:22:00,
2013-03-16 08:37:00,20.2,16.0,29.84,NNE,33,0.0,2.0,83,0.00,,,0.00,weatherlink.com 1.10,2013-03-16 12:37:00,
2013-03-16 08:52:00,19.9,15.0,29.84,ENE,69,0.0,2.0,82,0.00,,,0.00,weatherlink.com 1.10,2013-03-16 12:52:00,
2013-03-16 09:07:00,21.7,16.0,29.84,ESE,111,0.0,3.0,78,0.00,,,0.00,weatherlink.com 1.10,2013-03-16 13:07:00,
2013-03-16 09:22:00,23.3,17.0,29.84,WNW,298,0.0,2.0,75,0.00,,,0.00,weatherlink.com 1.10,2013-03-16 13:22:00,
2013-03-16 09:37:00,23.1,15.0,29.84,NW,322,0.0,4.0,71,0.00,,,0.00,weatherlink.com 1.10,2013-03-16 13:37:00,
2013-03-16 09:52:00,25.0,16.0,29.84,WSW,249,0.0,3.0,68,0.00,,,0.00,weatherlink.com 1.10,2013-03-16 13:52:00,
2013-03-16 10:07:00,23.9,14.0,29.84,NW,304,1.0,3.0,67,0.00,,,0.00,weatherlink.com 1.10,2013-03-16 14:07:00,
2013-03-16 10:22:00,24.3,15.0,29.84,SSW,196,0.0,4.0,67,0.00,,,0.00,weatherlink.com 1.10,2013-03-16 14:22:00,
2013-03-16 10:37:00,22.6,15.0,29.85,WNW,286,1.0,2.0,72,0.00,,,0.00,weatherlink.com 1.10,2013-03-16 14:37:00,
2013-03-16 10:52:00,22.9,14.0,29.84,NW,317,1.0,4.0,69,0.00,,,0.00,weatherlink.com 1.10,2013-03-16 14:52:00,
2013-03-16 11:07:00,22.0,14.0,29.84,NNW,346,0.0,7.0,72,0.00,,,0.00,weatherlink.com 1.10,2013-03-16 15:07:00,
2013-03-16 11:22:00,22.0,13.0,29.84,ENE,65,2.0,5.0,68,0.00,,,0.00,weatherlink.com 1.10,2013-03-16 15:22:00,
2013-03-16 11:37:00,23.0,13.0,29.84,ESE,105,1.0,4.0,65,0.00,,,0.00,weatherlink.com 1.10,2013-03-16 15:37:00,
2013-03-16 11:52:00,21.8,14.0,29.84,West,265,0.0,3.0,72,0.00,,,0.00,weatherlink.com 1.10,2013-03-16 15:52:00,
2013-03-16 12:07:00,23.4,12.0,29.84,East,99,2.0,3.0,63,0.00,,,0.00,weatherlink.com 1.10,2013-03-16 16:07:00,
2013-03-16 12:22:00,23.6,13.0,29.84,South,182,0.0,6.0,63,0.00,,,0.00,weatherlink.com 1.10,2013-03-16 16:22:00,
2013-03-16 12:37:00,23.6,14.0,29.84,South,182,0.0,1.0,66,0.00,,,0.00,weatherlink.com 1.10,2013-03-16 16:37:00,
2013-03-16 12:52:00,22.5,13.0,29.84,SSW,210,0.0,2.0,68,0.00,,,0.00,weatherlink.com 1.10,2013-03-16 16:52:00,
2013-03-16 13:07:00,23.4,13.0,29.84,SW,236,0.0,2.0,64,0.00,,,0.00,weatherlink.com 1.10,2013-03-16 17:07:00,
2013-03-16 13:22:00,23.4,14.0,29.84,WNW,299,0.0,2.0,66,0.00,,,0.00,weatherlink.com 1.10,2013-03-16 17:22:00,
2013-03-16 13:37:00,23.3,13.0,29.84,East,97,1.0,3.0,65,0.00,,,0.00,weatherlink.com 1.10,2013-03-16 17:37:00,
2013-03-16 13:53:00,23.9,12.0,29.83,SW,221,0.0,3.0,62,0.00,,,0.00,weatherlink.com 1.10,2013-03-16 17:53:00,
2013-03-16 14:07:00,24.0,12.0,29.83,SSW,196,1.0,4.0,60,0.00,,,0.00,weatherlink.com 1.10,2013-03-16 18:07:00,
2013-03-16 14:22:00,23.9,13.0,29.83,SW,221,1.0,2.0,63,0.00,,,0.00,weatherlink.com 1.10,2013-03-16 18:22:00,
2013-03-16 14:37:00,23.9,12.0,29.83,South,182,1.0,3.0,62,0.00,,,0.00,weatherlink.com 1.10,2013-03-16 18:37:00,
2013-03-16 14:52:00,24.4,12.0,29.83,SSE,165,1.0,6.0,59,0.00,,,0.00,weatherlink.com 1.10,2013-03-16 18:52:00,
2013-03-16 15:07:00,24.0,12.0,29.82,South,182,2.0,3.0,60,0.00,,,0.00,weatherlink.com 1.10,2013-03-16 19:07:00,
2013-03-16 15:22:00,24.0,11.0,29.83,ENE,67,1.0,2.0,58,0.00,,,0.00,weatherlink.com 1.10,2013-03-16 19:22:00,
2013-03-16 15:37:00,24.2,11.0,29.83,SW,219,3.0,4.0,58,0.00,,,0.00,weatherlink.com 1.10,2013-03-16 19:37:00,
2013-03-16 15:52:00,24.6,11.0,29.83,SSW,195,2.0,3.0,57,0.00,,,0.00,weatherlink.com 1.10,2013-03-16 19:52:00,
2013-03-16 16:07:00,24.5,11.0,29.82,SSW,195,1.0,3.0,56,0.00,,,0.00,weatherlink.com 1.10,2013-03-16 20:07:00,
2013-03-16 16:22:00,24.4,11.0,29.82,SE,140,0.0,2.0,57,0.00,,,0.00,weatherlink.com 1.10,2013-03-16 20:22:00,
2013-03-16 16:37:00,24.0,11.0,29.82,ENE,57,2.0,2.0,58,0.00,,,0.00,weatherlink.com 1.10,2013-03-16 20:37:00,
2013-03-16 16:52:00,23.5,11.0,29.81,SSW,195,1.0,3.0,58,0.00,,,0.00,weatherlink.com 1.10,2013-03-16 20:52:00,
2013-03-16 17:07:00,23.5,11.0,29.81,SSW,195,0.0,2.0,59,0.00,,,0.00,weatherlink.com 1.10,2013-03-16 21:07:00,
2013-03-16 17:22:00,23.6,11.0,29.82,ENE,59,1.0,3.0,59,0.00,,,0.00,weatherlink.com 1.10,2013-03-16 21:22:00,
2013-03-16 17:37:00,22.9,11.0,29.82,East,85,0.0,2.0,61,0.00,,,0.00,weatherlink.com 1.10,2013-03-16 21:37:00,
2013-03-16 17:52:00,22.7,11.0,29.82,ENE,59,0.0,2.0,61,0.00,,,0.00,weatherlink.com 1.10,2013-03-16 21:52:00,
2013-03-16 18:07:00,22.5,11.0,29.83,NE,51,0.0,1.0,62,0.00,,,0.00,weatherlink.com 1.10,2013-03-16 22:07:00,
2013-03-16 18:22:00,21.9,12.0,29.82,ENE,70,1.0,3.0,65,0.00,,,0.00,weatherlink.com 1.10,2013-03-16 22:22:00,
2013-03-16 18:37:00,21.6,11.0,29.82,South,183,0.0,1.0,65,0.00,,,0.00,weatherlink.com 1.10,2013-03-16 22:37:00,
2013-03-16 18:52:00,21.2,12.0,29.83,SE,142,0.0,1.0,68,0.00,,,0.00,weatherlink.com 1.10,2013-03-16 22:52:00,
2013-03-16 19:07:00,20.8,13.0,29.83,SE,141,0.0,1.0,71,0.00,,,0.00,weatherlink.com 1.10,2013-03-16 23:07:00,
2013-03-16 19:22:00,20.5,12.0,29.84,East,79,0.0,1.0,69,0.00,,,0.00,weatherlink.com 1.10,2013-03-16 23:22:00,
2013-03-16 19:37:00,20.2,12.0,29.84,East,79,0.0,0.0,70,0.00,,,0.00,weatherlink.com 1.10,2013-03-16 23:37:00,
2013-03-16 19:52:00,20.0,12.0,29.85,East,79,0.0,0.0,72,0.00,,,0.00,weatherlink.com 1.10,2013-03-16 23:52:00,
2013-03-16 20:07:00,19.7,12.0,29.85,East,79,0.0,0.0,72,0.00,,,0.00,weatherlink.com 1.10,2013-03-17 00:07:00,
2013-03-16 20:22:00,19.3,13.0,29.86,East,79,0.0,0.0,75,0.00,,,0.00,weatherlink.com 1.10,2013-03-17 00:22:00,
2013-03-16 20:37:00,18.8,12.0,29.86,East,79,0.0,0.0,76,0.00,,,0.00,weatherlink.com 1.10,2013-03-17 00:37:00,
2013-03-16 20:53:00,18.4,12.0,29.86,East,79,0.0,0.0,77,0.00,,,0.00,weatherlink.com 1.10,2013-03-17 00:53:00,
2013-03-16 21:08:00,17.8,12.0,29.87,East,79,0.0,0.0,79,0.00,,,0.00,weatherlink.com 1.10,2013-03-17 01:08:00,
2013-03-16 21:23:00,17.1,12.0,29.88,East,79,0.0,0.0,81,0.00,,,0.00,weatherlink.com 1.10,2013-03-17 01:23:00,
2013-03-16 21:38:00,16.1,11.0,29.89,East,79,0.0,0.0,81,0.00,,,0.00,weatherlink.com 1.10,2013-03-17 01:38:00,
2013-03-16 21:53:00,15.3,11.0,29.89,East,79,0.0,0.0,82,0.00,,,0.00,weatherlink.com 1.10,2013-03-17 01:53:00,
2013-03-16 22:08:00,14.8,10.0,29.88,East,79,0.0,0.0,82,0.00,,,0.00,weatherlink.com 1.10,2013-03-17 02:08:00,
2013-03-16 22:23:00,14.5,10.0,29.89,East,79,0.0,0.0,83,0.00,,,0.00,weatherlink.com 1.10,2013-03-17 02:23:00,
2013-03-16 22:38:00,13.9,9.0,29.89,East,79,0.0,1.0,82,0.00,,,0.00,weatherlink.com 1.10,2013-03-17 02:38:00,
2013-03-16 22:53:00,13.5,9.0,29.90,ENE,78,0.0,1.0,83,0.00,,,0.00,weatherlink.com 1.10,2013-03-17 02:53:00,
2013-03-16 23:08:00,12.9,9.0,29.91,ENE,67,0.0,1.0,84,0.00,,,0.00,weatherlink.com 1.10,2013-03-17 03:08:00,
2013-03-16 23:23:00,12.7,9.0,29.91,ENE,65,0.0,1.0,86,0.00,,,0.00,weatherlink.com 1.10,2013-03-17 03:23:00,
2013-03-16 23:38:00,12.4,9.0,29.91,ENE,65,0.0,1.0,86,0.00,,,0.00,weatherlink.com 1.10,2013-03-17 03:38:00,
2013-03-16 23:53:00,12.6,9.0,29.92,ENE,65,0.0,1.0,86,0.00,,,0.00,weatherlink.com 1.10,2013-03-17 03:53:00,